AAL848 KORD-OMAA

Flight info

Callsign AAL848
Flight time N/A
Altitude 29000
Route EBAKE DCT WISMO DCT POSTS DCT PADDE DCT SVM DCT DKK DCT KB87C/N0485F310 DCT TOPPS N435B ELSIR/M084F330 DCT 50N050W 52N040W 54N030W 55N020W DCT RESNO DCT NETKI/N0480F350 DCT CON DCT MORAG DCT NUCHU DCT BOGNA UL612 XAMAB DCT VEULE DCT INPAX DCT RESMI DCT ODEBU DCT OGULO DCT OKASI DCT OKEKO DCT MOU DCT MADIV DCT MOKIP DCT TUFTA DCT KOGAS DCT MEDAM DCT NITAM DCT MOGBO DCT BELIX/N0483F370 DCT SALUN N705 MMA P751 DASUM Y234 FYM M872 LUBOS/N0486F390 M872 BDB Y214 RAPMA DCT KUVSO DCT KATIT DCT DANUX DCT TANSU/N0503F330 G783 VAVIM P899 ROVOS
Aircraft MD11/H-SDE1E2E3FGHIJ2J3J4J5M1RWXY/LB1D1

Departure

Time 2026-05-04 07:33
Airport Chicago O'Hare International Airport (KORD)

Arrival

Time N/A
Airport Zayed International Airport (OMAA)
Time Latitude Longitude Altitude Speed Heading
2026-05-04 07:19 41.97355 -87.88637 676 ft 0 kts
2026-05-04 07:23 41.97339 -87.88637 675 ft 4 kts 359°
2026-05-04 07:23 41.97312 -87.88638 675 ft 4 kts 15°
2026-05-04 07:24 41.97292 -87.88649 674 ft 4 kts 32°
2026-05-04 07:24 41.97273 -87.88673 673 ft 4 kts 66°
2026-05-04 07:24 41.97269 -87.88703 676 ft 4 kts 90°
2026-05-04 07:24 41.97268 -87.88737 676 ft 2 kts 90°
2026-05-04 07:25 41.97268 -87.88739 676 ft 0 kts 90°
2026-05-04 07:29 41.97268 -87.88727 676 ft 2 kts 96°
2026-05-04 07:29 41.97258 -87.88707 672 ft 3 kts 131°
2026-05-04 07:29 41.97234 -87.88677 676 ft 6 kts 136°
2026-05-04 07:29 41.97205 -87.88622 676 ft 8 kts 109°
2026-05-04 07:30 41.97197 -87.88536 676 ft 10 kts 95°
2026-05-04 07:30 41.97153 -87.88467 676 ft 11 kts 152°
2026-05-04 07:30 41.97073 -87.88445 676 ft 12 kts 175°
2026-05-04 07:30 41.96984 -87.88444 676 ft 14 kts 181°
2026-05-04 07:31 41.96910 -87.88502 675 ft 13 kts 253°
2026-05-04 07:31 41.96906 -87.88706 674 ft 48 kts 270°
2026-05-04 07:33 41.97637 -87.98899 3105 ft 198 kts 325°
2026-05-04 07:33 41.98986 -87.99406 3551 ft 211 kts 358°
2026-05-04 07:33 42.00414 -87.98779 3896 ft 230 kts 30°
2026-05-04 07:33 42.01509 -87.97104 4053 ft 251 kts 62°
2026-05-04 07:34 42.01977 -87.94817 4230 ft 264 kts 80°
2026-05-04 07:34 42.02230 -87.92272 4354 ft 277 kts 82°
2026-05-04 07:34 42.02474 -87.89660 4487 ft 286 kts 82°
2026-05-04 07:34 42.02724 -87.86990 4750 ft 289 kts 82°
2026-05-04 07:35 42.02977 -87.84285 4991 ft 297 kts 82°
2026-05-04 07:35 42.03240 -87.81473 5125 ft 309 kts 82°
2026-05-04 07:35 42.03513 -87.78558 5313 ft 317 kts 82°
2026-05-04 07:35 42.03797 -87.75600 5664 ft 319 kts 81°
2026-05-04 07:36 42.04200 -87.72655 6111 ft 323 kts 76°
2026-05-04 07:36 42.04805 -87.69712 6482 ft 333 kts 70°
2026-05-04 07:38 42.11853 -87.49086 10376 ft 377 kts 61°
2026-05-04 07:38 42.13044 -87.45923 10925 ft 380 kts 61°
2026-05-04 07:38 42.14244 -87.42733 11509 ft 384 kts 61°
2026-05-04 07:38 42.15457 -87.39511 12075 ft 387 kts 60°
2026-05-04 07:39 42.16679 -87.36259 12629 ft 390 kts 60°
2026-05-04 07:39 42.17911 -87.32983 13187 ft 393 kts 60°
2026-05-04 07:39 42.19142 -87.29703 13659 ft 396 kts 60°
2026-05-04 07:39 42.20383 -87.26393 14126 ft 398 kts 60°
2026-05-04 07:40 42.21634 -87.23051 14570 ft 401 kts 60°
2026-05-04 07:40 42.22895 -87.19680 15025 ft 404 kts 60°
2026-05-04 07:40 42.24165 -87.16279 15459 ft 407 kts 60°
2026-05-04 07:40 42.25442 -87.12859 15896 ft 409 kts 60°
2026-05-04 07:41 42.26708 -87.09461 16306 ft 412 kts 60°
2026-05-04 07:41 42.27820 -87.05818 16686 ft 418 kts 73°
2026-05-04 07:41 42.28345 -87.01986 17068 ft 423 kts 82°
2026-05-04 07:41 42.28561 -86.98008 17475 ft 427 kts 86°
2026-05-04 07:42 42.28663 -86.93983 17879 ft 430 kts 86°
2026-05-04 07:42 42.28748 -86.89962 18254 ft 432 kts 86°
2026-05-04 07:42 42.28852 -86.85899 18607 ft 434 kts 86°
2026-05-04 07:42 42.28978 -86.81819 18948 ft 436 kts 85°
2026-05-04 07:43 42.29122 -86.77724 19295 ft 438 kts 85°
2026-05-04 07:43 42.29277 -86.73611 19622 ft 440 kts 85°
2026-05-04 07:43 42.29436 -86.69484 19943 ft 441 kts 85°
2026-05-04 07:43 42.29597 -86.65334 20268 ft 443 kts 85°
2026-05-04 07:44 42.29757 -86.61171 20598 ft 445 kts 85°
2026-05-04 07:44 42.29917 -86.56987 20920 ft 447 kts 84°
2026-05-04 07:44 42.30075 -86.52790 21289 ft 448 kts 84°
2026-05-04 07:44 42.30232 -86.48577 21624 ft 450 kts 84°
2026-05-04 07:45 42.30388 -86.44340 21952 ft 452 kts 84°
2026-05-04 07:45 42.30543 -86.40086 22287 ft 455 kts 84°
2026-05-04 07:45 42.30697 -86.35807 22622 ft 457 kts 84°
2026-05-04 07:45 42.30850 -86.31513 22970 ft 459 kts 84°
2026-05-04 07:46 42.31002 -86.27197 23313 ft 461 kts 84°
2026-05-04 07:46 42.31154 -86.22863 23641 ft 463 kts 84°
2026-05-04 07:46 42.31303 -86.18517 23955 ft 464 kts 84°
2026-05-04 07:46 42.31452 -86.14154 24268 ft 466 kts 84°
2026-05-04 07:47 42.31576 -86.09770 24576 ft 468 kts 86°
2026-05-04 07:47 42.31593 -86.05360 24904 ft 470 kts 88°
2026-05-04 07:47 42.31548 -86.00936 25218 ft 472 kts 88°
2026-05-04 07:49 42.31113 -85.69545 27348 ft 484 kts 88°
2026-05-04 07:49 42.31054 -85.64991 27638 ft 486 kts 88°
2026-05-04 07:49 42.30993 -85.60421 27924 ft 487 kts 88°
2026-05-04 07:50 42.30930 -85.55835 28201 ft 489 kts 88°
2026-05-04 07:50 42.30864 -85.51236 28470 ft 491 kts 88°
2026-05-04 07:50 42.30796 -85.46618 28736 ft 493 kts 88°
2026-05-04 07:50 42.30726 -85.41959 28799 ft 498 kts 88°
2026-05-04 07:51 42.30579 -85.32514 28796 ft 506 kts 88°
2026-05-04 07:51 42.30419 -85.23011 28795 ft 506 kts 88°
2026-05-04 07:52 42.30252 -85.13503 28796 ft 506 kts 88°
2026-05-04 07:52 42.30073 -85.03977 28819 ft 508 kts 88°
2026-05-04 07:54 42.29111 -84.65862 28830 ft 508 kts 89°
2026-05-04 07:55 42.28865 -84.56340 28808 ft 507 kts 89°
2026-05-04 07:55 42.28775 -84.46850 28815 ft 503 kts 82°
2026-05-04 07:56 42.29810 -84.37614 28814 ft 499 kts 75°
2026-05-04 07:56 42.31250 -84.28387 28843 ft 499 kts 74°
2026-05-04 07:57 42.32616 -84.19299 28810 ft 499 kts 75°
2026-05-04 07:57 42.33923 -84.10088 28821 ft 499 kts 75°
2026-05-04 07:58 42.35203 -84.00865 28813 ft 499 kts 75°
2026-05-04 07:58 42.36475 -83.91641 28815 ft 499 kts 75°
2026-05-04 07:59 42.37744 -83.82408 28822 ft 499 kts 76°
2026-05-04 07:59 42.39006 -83.73171 28821 ft 499 kts 76°
2026-05-04 08:00 42.40261 -83.63933 28821 ft 500 kts 76°
2026-05-04 08:02 42.42118 -83.26183 28801 ft 503 kts 84°
2026-05-04 08:02 42.42448 -83.16719 28805 ft 504 kts 84°
2026-05-04 08:03 42.42771 -83.07335 28805 ft 502 kts 83°
2026-05-04 08:03 42.43087 -82.97890 28804 ft 502 kts 83°
2026-05-04 08:04 42.43393 -82.88454 28805 ft 502 kts 84°
2026-05-04 08:04 42.43692 -82.79004 28808 ft 502 kts 84°
2026-05-04 08:05 42.43982 -82.69578 28819 ft 500 kts 83°
2026-05-04 08:05 42.44264 -82.60169 28818 ft 500 kts 83°
2026-05-04 08:06 42.44539 -82.50759 28821 ft 500 kts 83°
2026-05-04 08:06 42.44782 -82.41345 28819 ft 500 kts 84°
2026-05-04 08:08 42.45728 -82.03797 28813 ft 499 kts 83°
2026-05-04 08:11 42.46690 -81.61606 28823 ft 499 kts 84°
2026-05-04 08:11 42.46977 -81.47517 28823 ft 499 kts 84°
2026-05-04 08:12 42.47157 -81.38164 28827 ft 499 kts 84°
2026-05-04 08:12 42.47307 -81.28772 28823 ft 499 kts 84°
2026-05-04 08:13 42.47373 -81.24058 28924 ft 502 kts 84°
2026-05-04 08:13 42.47444 -81.19318 29193 ft 503 kts 84°
2026-05-04 08:13 42.47517 -81.14588 29531 ft 501 kts 84°
2026-05-04 08:13 42.47591 -81.09881 29873 ft 500 kts 84°
2026-05-04 08:14 42.47666 -81.05175 30148 ft 499 kts 84°
2026-05-04 08:14 42.47741 -81.00468 30360 ft 500 kts 84°
2026-05-04 08:14 42.47815 -80.95763 30561 ft 500 kts 84°
2026-05-04 08:16 42.48274 -80.62599 30848 ft 505 kts 85°
2026-05-04 08:16 42.48385 -80.53090 30868 ft 505 kts 86°
2026-05-04 08:17 42.48491 -80.43597 30861 ft 509 kts 86°
2026-05-04 08:17 42.48590 -80.33998 30859 ft 510 kts 86°
2026-05-04 08:19 42.48844 -79.95485 30859 ft 513 kts 87°
2026-05-04 08:20 42.48888 -79.87388 30859 ft 513 kts 87°
2026-05-04 08:20 42.48938 -79.77780 30869 ft 513 kts 88°
2026-05-04 08:21 42.48981 -79.68132 30869 ft 514 kts 88°
2026-05-04 08:21 42.49017 -79.58435 30871 ft 515 kts 88°
2026-05-04 08:22 42.49044 -79.48735 30872 ft 515 kts 88°